,,PA_Meas_PMT16A,,PR_Meas_QMR101_102,,RH_Meas_QMH101,,SR_Meas_QMS101,,TA_Meas_QMH101,,GenWind,,GenWind,
time,status,PA,status,PR,status,RH,status,SR,status,TA,status,DirAvg,status,SpdAvg,
2015-03-03, 07:07:04,INVALID - VALUE NOT AVAILABLE,0,INVALID - VALUE NOT AVAILABLE,0,INVALID - VALUE NOT AVAILABLE,0,INVALID - VALUE NOT AVAILABLE,0,INVALID - VALUE NOT AVAILABLE,0,INVALID,360,INVALID,0,
2015-03-03, 07:15:04,VALID,917.716,VALID,0,VALID,92.6321,VALID,98.631,VALID,18.6694,VALID,139,VALID,1.26758,
2015-03-03, 07:16:04,VALID,917.737,VALID,0,VALID,92.068,VALID,101.854,VALID,18.7279,VALID,135,VALID,1.58555,
2015-03-03, 07:17:04,VALID,917.741,VALID,0,VALID,91.9689,VALID,104.648,VALID,18.7474,VALID,138,VALID,1.53711,
2015-03-03, 07:18:04,VALID,917.772,VALID,0,VALID,91.9536,VALID,106.797,VALID,18.7864,VALID,138,VALID,1.30508,
2015-03-03, 07:19:04,VALID,917.792,VALID,0,VALID,91.9231,VALID,108.408,VALID,18.8059,VALID,126,VALID,1.48516,
2015-03-03, 07:20:04,VALID,917.822,VALID,0,VALID,91.9384,VALID,108.838,VALID,18.824,VALID,135,VALID,0.721094,
2015-03-03, 07:21:04,VALID,917.838,VALID,0,VALID,91.6411,VALID,111.309,VALID,18.8434,VALID,142,VALID,1.47383,
2015-03-03, 07:22:04,VALID,917.84,VALID,0,VALID,91.2599,VALID,114.317,VALID,18.8629,VALID,133,VALID,1.8375,
2015-03-03, 07:23:04,VALID,917.843,VALID,0,VALID,91.1151,VALID,117.218,VALID,18.8824,VALID,130,VALID,2.04063,
2015-03-03, 07:24:04,VALID,917.866,VALID,0,VALID,91.2599,VALID,116.896,VALID,18.9229,VALID,135,VALID,1.16602,
2015-03-03, 07:25:04,VALID,917.892,VALID,0,VALID,91.0465,VALID,119.367,VALID,18.9619,VALID,143,VALID,1.31328,
2015-03-03, 07:26:04,VALID,917.874,VALID,0,VALID,90.711,VALID,122.698,VALID,19.0203,VALID,128,VALID,1.61563,
2015-03-03, 07:27:04,VALID,917.911,VALID,0,VALID,90.1774,VALID,124.417,VALID,19.0579,VALID,121,VALID,1.79844,
2015-03-03, 07:28:04,VALID,917.927,VALID,0,VALID,90.368,VALID,126.136,VALID,19.1164,VALID,133,VALID,1.08047,
2015-03-03, 07:29:04,VALID,917.933,VALID,0,VALID,89.7886,VALID,128.392,VALID,19.1944,VALID,110,VALID,1.27227,
2015-03-03, 07:30:04,VALID,917.965,VALID,0,VALID,89.2702,VALID,130.326,VALID,19.2738,VALID,121,VALID,1.33398,
2015-03-03, 07:31:04,VALID,917.964,VALID,0,VALID,88.5536,VALID,133.012,VALID,19.2918,VALID,131,VALID,1.47578,
2015-03-03, 07:32:04,VALID,918.011,VALID,0,VALID,88.5384,VALID,131.508,VALID,19.3698,VALID,122,VALID,1.23984,
2015-03-03, 07:33:04,VALID,917.984,VALID,0,VALID,87.8827,VALID,134.087,VALID,19.4478,VALID,137,VALID,0.0121094,
2015-03-03, 07:34:04,VALID,918.035,VALID,0,VALID,88.02,VALID,140.533,VALID,19.5453,VALID,135,VALID,0,
2015-03-03, 07:35:04,VALID,918.055,VALID,0,VALID,87.2424,VALID,143.541,VALID,19.6233,VALID,135,VALID,0,
2015-03-03, 07:36:04,VALID,918.077,VALID,0,VALID,87.1204,VALID,146.657,VALID,19.7013,VALID,130,VALID,0,
2015-03-03, 07:37:04,VALID,918.117,VALID,0,VALID,86.3428,VALID,149.88,VALID,19.7193,VALID,129,VALID,0,
2015-03-03, 07:38:04,VALID,918.126,VALID,0,VALID,85.4585,VALID,153.211,VALID,19.7988,VALID,134,VALID,0,
2015-03-03, 07:39:04,VALID,918.135,VALID,0,VALID,85.7406,VALID,156.327,VALID,19.8378,VALID,134,VALID,0,
2015-03-03, 07:40:04,VALID,918.145,VALID,0,VALID,85.9311,VALID,159.658,VALID,19.9173,VALID,125,VALID,0,
2015-03-03, 07:41:04,VALID,918.158,VALID,0,VALID,85.5042,VALID,163.311,VALID,19.9953,VALID,144,VALID,0.275781,
2015-03-03, 07:42:04,VALID,918.135,VALID,0,VALID,85.2527,VALID,167.501,VALID,20.0328,VALID,147,VALID,0,
2015-03-03, 07:43:04,VALID,918.166,VALID,0,VALID,84.6047,VALID,171.261,VALID,20.1123,VALID,141,VALID,0,
2015-03-03, 07:44:04,VALID,918.146,VALID,0,VALID,84.9172,VALID,174.914,VALID,20.1498,VALID,137,VALID,0,
2015-03-03, 07:45:04,VALID,918.152,VALID,0,VALID,84.6733,VALID,178.997,VALID,20.2473,VALID,138,VALID,0,
2015-03-03, 07:46:04,VALID,918.171,VALID,0,VALID,84.0482,VALID,182.757,VALID,20.3448,VALID,139,VALID,0,
2015-03-03, 07:47:04,VALID,918.131,VALID,0,VALID,83.8881,VALID,186.518,VALID,20.4813,VALID,136,VALID,0,
2015-03-03, 07:48:04,VALID,918.128,VALID,0,VALID,82.6302,VALID,190.386,VALID,20.5399,VALID,147,VALID,0,
2015-03-03, 07:49:04,VALID,918.151,VALID,0,VALID,82.028,VALID,194.361,VALID,20.5789,VALID,121,VALID,0,
2015-03-03, 07:50:04,VALID,918.168,VALID,0,VALID,82.31,VALID,198.336,VALID,20.6179,VALID,118,VALID,0,
2015-03-03, 07:51:04,VALID,918.154,VALID,0,VALID,82.5463,VALID,201.237,VALID,20.6764,VALID,121,VALID,0,
2015-03-03, 07:52:04,VALID,918.165,VALID,0,VALID,82.4625,VALID,205.105,VALID,20.7154,VALID,127,VALID,0,
2015-03-03, 07:53:04,VALID,918.174,VALID,0,VALID,80.2746,VALID,208.436,VALID,20.7723,VALID,144,VALID,0,
2015-03-03, 07:54:04,VALID,918.187,VALID,0,VALID,81.2885,VALID,211.767,VALID,20.8714,VALID,130,VALID,0,
2015-03-03, 07:55:04,VALID,918.197,VALID,0,VALID,80.5261,VALID,215.527,VALID,20.9885,VALID,143,VALID,0,
2015-03-03, 07:56:04,VALID,918.184,VALID,0,VALID,81.0522,VALID,219.073,VALID,21.0649,VALID,138,VALID,0,
2015-03-03, 07:57:04,VALID,918.203,VALID,0,VALID,80.793,VALID,222.726,VALID,21.1819,VALID,138,VALID,0,
2015-03-03, 07:58:04,VALID,918.193,VALID,0,VALID,78.8795,VALID,225.734,VALID,21.2015,VALID,127,VALID,0.237891,
2015-03-03, 07:59:04,VALID,918.184,VALID,0,VALID,78.4221,VALID,229.279,VALID,21.2015,VALID,127,VALID,1.47969,
2015-03-03, 08:00:04,VALID,918.207,VALID,0,VALID,80.8844,VALID,232.503,VALID,21.3201,VALID,120,VALID,0.577734,
2015-03-03, 08:01:04,VALID,918.242,VALID,0,VALID,78.7804,VALID,235.941,VALID,21.3575,VALID,146,VALID,1.07422,
2015-03-03, 08:02:04,VALID,918.224,VALID,0,VALID,79.3674,VALID,239.164,VALID,21.3575,VALID,152,VALID,1.05195,
2015-03-03, 08:03:04,VALID,918.222,VALID,0,VALID,79.3293,VALID,243.032,VALID,21.3006,VALID,153,VALID,0,
2015-03-03, 08:04:04,VALID,918.24,VALID,0,VALID,79.314,VALID,246.577,VALID,21.2811,VALID,141,VALID,0.145313,
2015-03-03, 08:05:04,VALID,918.249,VALID,0,VALID,80.7625,VALID,250.016,VALID,21.2616,VALID,120,VALID,0,
2015-03-03, 08:06:04,VALID,918.243,VALID,0,VALID,80.8235,VALID,253.561,VALID,21.3981,VALID,159,VALID,0,
2015-03-03, 08:07:04,VALID,918.245,VALID,0,VALID,79.7181,VALID,257.107,VALID,21.5347,VALID,133,VALID,0,
2015-03-03, 08:08:04,VALID,918.258,VALID,0,VALID,79.2607,VALID,260.867,VALID,21.5347,VALID,142,VALID,0,
2015-03-03, 08:09:04,VALID,918.272,VALID,0,VALID,79.7257,VALID,264.735,VALID,21.5737,VALID,143,VALID,0,
2015-03-03, 08:10:04,VALID,918.262,VALID,0,VALID,79.192,VALID,268.173,VALID,21.6111,VALID,145,VALID,0,
2015-03-03, 08:11:04,VALID,918.258,VALID,0,VALID,78.7423,VALID,272.256,VALID,21.6518,VALID,158,VALID,0.00585938,
2015-03-03, 08:12:04,VALID,918.264,VALID,0,VALID,78.1095,VALID,275.801,VALID,21.5932,VALID,158,VALID,0,
2015-03-03, 08:13:04,VALID,918.27,VALID,0,VALID,78.91,VALID,279.454,VALID,21.5932,VALID,149,VALID,0,
2015-03-03, 08:14:04,VALID,918.279,VALID,0,VALID,78.666,VALID,283.43,VALID,21.5721,VALID,171,VALID,0,
2015-03-03, 08:15:04,VALID,918.29,VALID,0,VALID,78.8566,VALID,287.19,VALID,21.5916,VALID,157,VALID,0,
2015-03-03, 08:16:04,VALID,918.295,VALID,0,VALID,78.2239,VALID,290.521,VALID,21.5721,VALID,156,VALID,0.0105469,
2015-03-03, 08:17:04,VALID,918.318,VALID,0,VALID,78.7651,VALID,294.711,VALID,21.6111,VALID,159,VALID,0,
2015-03-03, 08:18:04,VALID,918.341,VALID,0,VALID,79.3216,VALID,298.579,VALID,21.6696,VALID,149,VALID,0,
2015-03-03, 08:19:04,VALID,918.312,VALID,0,VALID,78.6965,VALID,301.372,VALID,21.746,VALID,161,VALID,0.24375,
2015-03-03, 08:20:04,VALID,918.327,VALID,0,VALID,79.2073,VALID,305.563,VALID,21.8062,VALID,157,VALID,0,
2015-03-03, 08:21:04,VALID,918.342,VALID,0,VALID,77.8656,VALID,309.216,VALID,21.8842,VALID,162,VALID,0,
2015-03-03, 08:22:04,VALID,918.339,VALID,0,VALID,77.3091,VALID,313.298,VALID,21.9428,VALID,152,VALID,0,
2015-03-03, 08:23:04,VALID,918.381,VALID,0,VALID,77.6979,VALID,317.918,VALID,22.0013,VALID,146,VALID,0.00429688,
2015-03-03, 08:24:04,VALID,918.342,VALID,0,VALID,77.6597,VALID,322.431,VALID,22.0208,VALID,166,VALID,0,
2015-03-03, 08:25:04,VALID,918.364,VALID,0,VALID,77.9723,VALID,326.514,VALID,22.1184,VALID,143,VALID,0,
2015-03-03, 08:26:04,VALID,918.361,VALID,0,VALID,76.9355,VALID,331.241,VALID,22.1167,VALID,161,VALID,0,
2015-03-03, 08:27:04,VALID,918.339,VALID,0,VALID,76.7525,VALID,336.076,VALID,22.2354,VALID,175,VALID,0,
2015-03-03, 08:28:04,VALID,918.349,VALID,0,VALID,76.379,VALID,340.481,VALID,22.3525,VALID,152,VALID,0,
2015-03-03, 08:29:04,VALID,918.327,VALID,0,VALID,75.4794,VALID,344.886,VALID,22.4501,VALID,149,VALID,0,
2015-03-03, 08:30:04,VALID,918.326,VALID,0,VALID,76.6001,VALID,349.076,VALID,22.5069,VALID,171,VALID,0,
2015-03-03, 08:31:04,VALID,918.335,VALID,0,VALID,75.5633,VALID,353.804,VALID,22.5069,VALID,169,VALID,0,
2015-03-03, 08:32:04,VALID,918.317,VALID,0,VALID,74.3969,VALID,358.101,VALID,22.5867,VALID,165,VALID,0,
2015-03-03, 08:33:04,VALID,918.296,VALID,0,VALID,75.792,VALID,362.399,VALID,22.4874,VALID,155,VALID,0.0289063,
2015-03-03, 08:34:04,VALID,918.343,VALID,0,VALID,77.3929,VALID,366.912,VALID,22.5264,VALID,150,VALID,0,
2015-03-03, 08:35:04,VALID,918.325,VALID,0,VALID,73.5736,VALID,371.102,VALID,22.5086,VALID,171,VALID,0.0417969,
2015-03-03, 08:36:04,VALID,918.329,VALID,0,VALID,73.6193,VALID,374.755,VALID,22.5086,VALID,174,VALID,1.00352,
2015-03-03, 08:37:04,VALID,918.333,VALID,0,VALID,74.2597,VALID,378.945,VALID,22.6062,VALID,153,VALID,0,
2015-03-03, 08:38:04,VALID,918.338,VALID,0,VALID,73.5126,VALID,385.284,VALID,22.6825,VALID,156,VALID,0.114063,
2015-03-03, 08:39:04,VALID,918.312,VALID,0,VALID,74.8315,VALID,394.309,VALID,22.6452,VALID,155,VALID,0.410937,
2015-03-03, 08:40:04,VALID,918.291,VALID,0,VALID,74.6332,VALID,395.276,VALID,22.6062,VALID,160,VALID,0.577734,
2015-03-03, 08:41:04,VALID,918.283,VALID,0,VALID,75.6395,VALID,366.267,VALID,22.6435,VALID,160,VALID,0.00820312,
2015-03-03, 08:42:04,VALID,918.296,VALID,0,VALID,75.6853,VALID,346.605,VALID,22.6647,VALID,171,VALID,0.00195313,
2015-03-03, 08:43:04,VALID,918.312,VALID,0,VALID,74.1911,VALID,350.58,VALID,22.7216,VALID,152,VALID,0.108203,
2015-03-03, 08:44:04,VALID,918.294,VALID,0,VALID,74.031,VALID,368.416,VALID,22.7038,VALID,148,VALID,0.579687,
2015-03-03, 08:45:04,VALID,918.3,VALID,0,VALID,75.5938,VALID,376.689,VALID,22.7216,VALID,147,VALID,0.00585938,
2015-03-03, 08:46:04,VALID,918.319,VALID,0,VALID,75.8225,VALID,371.639,VALID,22.8404,VALID,169,VALID,0,
2015-03-03, 08:47:04,VALID,918.354,VALID,0,VALID,75.7234,VALID,363.259,VALID,22.8972,VALID,143,VALID,0,
2015-03-03, 08:48:04,VALID,918.384,VALID,0,VALID,75.0297,VALID,350.151,VALID,22.9753,VALID,135,VALID,0,
2015-03-03, 08:49:04,VALID,918.365,VALID,0,VALID,74.153,VALID,344.027,VALID,23.0533,VALID,141,VALID,0,
2015-03-03, 08:50:04,VALID,918.35,VALID,0,VALID,72.7045,VALID,344.564,VALID,23.0924,VALID,156,VALID,0,
2015-03-03, 08:51:04,VALID,918.331,VALID,0,VALID,72.9713,VALID,329.522,VALID,23.1899,VALID,156,VALID,0,
2015-03-03, 08:52:04,VALID,918.344,VALID,0,VALID,73.0628,VALID,298.579,VALID,23.3265,VALID,153,VALID,0,
2015-03-03, 08:53:04,VALID,918.354,VALID,0,VALID,72.8417,VALID,270.644,VALID,23.4827,VALID,160,VALID,0,
2015-03-03, 08:54:04,VALID,918.36,VALID,0,VALID,73.1619,VALID,259.363,VALID,23.543,VALID,160,VALID,0,
2015-03-03, 08:55:04,VALID,918.362,VALID,0,VALID,71.3018,VALID,234.437,VALID,23.5412,VALID,160,VALID,0,
2015-03-03, 08:56:04,VALID,918.383,VALID,0,VALID,71.2332,VALID,229.924,VALID,23.5608,VALID,160,VALID,0,
2015-03-03, 08:57:04,VALID,918.387,VALID,0,VALID,72.6816,VALID,231.428,VALID,23.5217,VALID,157,VALID,0.490625,
2015-03-03, 08:58:04,VALID,918.363,VALID,0,VALID,72.8875,VALID,227.023,VALID,23.5217,VALID,181,VALID,1.00469,
2015-03-03, 08:59:04,VALID,918.369,VALID,0,VALID,72.2471,VALID,224.122,VALID,23.4046,VALID,157,VALID,0.111328,
2015-03-03, 09:00:04,VALID,918.35,VALID,0,VALID,74.1149,VALID,212.948,VALID,23.229,VALID,153,VALID,0.003125,
2015-03-03, 09:01:04,VALID,918.386,VALID,0,VALID,75.2584,VALID,214.023,VALID,23.1704,VALID,150,VALID,0,
2015-03-03, 09:02:04,VALID,918.368,VALID,0,VALID,74.2826,VALID,239.916,VALID,23.2094,VALID,162,VALID,0,
2015-03-03, 09:03:04,VALID,918.382,VALID,0,VALID,75.6167,VALID,280.421,VALID,23.1687,VALID,171,VALID,0,
2015-03-03, 09:04:04,VALID,918.365,VALID,0,VALID,75.7539,VALID,308.571,VALID,23.1314,VALID,157,VALID,0,
2015-03-03, 09:05:04,VALID,918.385,VALID,0,VALID,74.6332,VALID,281.926,VALID,22.9948,VALID,161,VALID,0.169922,
2015-03-03, 09:06:04,VALID,918.4,VALID,0,VALID,76.0664,VALID,249.156,VALID,22.9948,VALID,152,VALID,0,
2015-03-03, 09:07:04,VALID,918.376,VALID,0,VALID,77.0727,VALID,229.924,VALID,23.0924,VALID,157,VALID,0,
2015-03-03, 09:08:04,VALID,918.354,VALID,0,VALID,74.9306,VALID,239.057,VALID,23.1509,VALID,185,VALID,0,
2015-03-03, 09:09:04,VALID,918.394,VALID,0,VALID,75.6929,VALID,307.819,VALID,23.268,VALID,184,VALID,0,
2015-03-03, 09:10:04,VALID,918.403,VALID,0,VALID,74.3436,VALID,394.739,VALID,23.2875,VALID,191,VALID,0.00585938,
2015-03-03, 09:11:04,VALID,918.433,VALID,0,VALID,74.374,VALID,452.327,VALID,23.4046,VALID,187,VALID,0,
2015-03-03, 09:12:04,VALID,918.419,VALID,0,VALID,73.9319,VALID,491.866,VALID,23.5217,VALID,187,VALID,0,
2015-03-03, 09:13:04,VALID,918.446,VALID,0,VALID,72.7808,VALID,493.047,VALID,23.7169,VALID,195,VALID,0,
2015-03-03, 09:14:04,VALID,918.443,VALID,0,VALID,71.0807,VALID,489.609,VALID,23.834,VALID,158,VALID,0.528906,
2015-03-03, 09:15:04,VALID,918.458,VALID,0,VALID,72.0565,VALID,448.674,VALID,23.7542,VALID,170,VALID,0.0515625,
2015-03-03, 09:16:04,VALID,918.45,VALID,0,VALID,71.1036,VALID,405.913,VALID,23.7755,VALID,157,VALID,1.21133,
2015-03-03, 09:17:04,VALID,918.452,VALID,0,VALID,69.3655,VALID,422.136,VALID,23.6956,VALID,182,VALID,1.27773,
2015-03-03, 09:18:04,VALID,918.446,VALID,0,VALID,71.9803,VALID,471.667,VALID,23.756,VALID,168,VALID,1.15625,
2015-03-03, 09:19:04,VALID,918.47,VALID,0,VALID,72.8951,VALID,488.857,VALID,23.8926,VALID,155,VALID,0.544922,
2015-03-03, 09:20:04,VALID,918.456,VALID,0,VALID,68.9233,VALID,530.544,VALID,23.9884,VALID,174,VALID,0.914063,
2015-03-03, 09:21:04,VALID,918.467,VALID,0,VALID,69.6475,VALID,540.644,VALID,24.1445,VALID,170,VALID,1.01055,
2015-03-03, 09:22:04,VALID,918.477,VALID,0,VALID,68.5498,VALID,540.751,VALID,24.3593,VALID,169,VALID,0.0121094,
2015-03-03, 09:23:04,VALID,918.488,VALID,0,VALID,66.1941,VALID,538.173,VALID,24.5564,VALID,159,VALID,0.00429688,
2015-03-03, 09:24:04,VALID,918.516,VALID,0,VALID,68.4354,VALID,526.784,VALID,24.5155,VALID,141,VALID,0,
2015-03-03, 09:25:04,VALID,918.516,VALID,0,VALID,68.3439,VALID,510.131,VALID,24.5564,VALID,136,VALID,0,
2015-03-03, 09:26:04,VALID,918.503,VALID,0,VALID,67.5282,VALID,484.13,VALID,24.5564,VALID,130,VALID,0,
2015-03-03, 09:27:04,VALID,918.531,VALID,0,VALID,66.8345,VALID,467.906,VALID,24.4959,VALID,100,VALID,0.0941406,
2015-03-03, 09:28:04,VALID,918.518,VALID,0,VALID,67.2919,VALID,511.098,VALID,24.4764,VALID,105,VALID,0,
2015-03-03, 09:29:04,VALID,918.482,VALID,0,VALID,68.1762,VALID,541.611,VALID,24.4569,VALID,133,VALID,0,
2015-03-03, 09:30:04,VALID,918.528,VALID,0,VALID,65.9654,VALID,550.636,VALID,24.5155,VALID,133,VALID,0,
2015-03-03, 09:31:04,VALID,918.522,VALID,0,VALID,65.386,VALID,554.396,VALID,24.6326,VALID,133,VALID,0,
2015-03-03, 09:32:04,VALID,918.506,VALID,0,VALID,64.2425,VALID,557.082,VALID,24.9255,VALID,133,VALID,0,
2015-03-03, 09:33:04,VALID,918.507,VALID,0,VALID,61.4371,VALID,561.38,VALID,25.0817,VALID,140,VALID,0,
2015-03-03, 09:34:04,VALID,918.522,VALID,0,VALID,61.1627,VALID,565.463,VALID,25.2769,VALID,176,VALID,0.650781,
2015-03-03, 09:35:04,VALID,918.522,VALID,0,VALID,62.977,VALID,568.686,VALID,25.5113,VALID,176,VALID,0.0632813,
2015-03-03, 09:36:04,VALID,918.528,VALID,0,VALID,62.7636,VALID,572.232,VALID,25.4917,VALID,180,VALID,0,
2015-03-03, 09:37:04,VALID,918.56,VALID,0,VALID,62.6111,VALID,573.843,VALID,25.5093,VALID,196,VALID,0.129297,
2015-03-03, 09:38:04,VALID,918.571,VALID,0,VALID,62.9389,VALID,573.736,VALID,25.5698,VALID,192,VALID,0,
2015-03-03, 09:39:04,VALID,918.555,VALID,0,VALID,61.9098,VALID,573.521,VALID,25.6499,VALID,188,VALID,0.359766,
2015-03-03, 09:40:04,VALID,918.547,VALID,0,VALID,60.9187,VALID,575.992,VALID,25.5308,VALID,175,VALID,0.882031,
2015-03-03, 09:41:04,VALID,918.552,VALID,0,VALID,60.2097,VALID,575.347,VALID,25.6675,VALID,175,VALID,0.240625,
2015-03-03, 09:42:04,VALID,918.545,VALID,0,VALID,61.4219,VALID,575.67,VALID,25.9019,VALID,175,VALID,0.291016,
2015-03-03, 09:43:04,VALID,918.535,VALID,0,VALID,61.1093,VALID,578.678,VALID,26.0992,VALID,128,VALID,0.173438,
2015-03-03, 09:44:04,VALID,918.531,VALID,0,VALID,60.4384,VALID,580.505,VALID,26.3726,VALID,128,VALID,0,
2015-03-03, 09:45:04,VALID,918.517,VALID,0,VALID,59.8362,VALID,582.868,VALID,26.3706,VALID,212,VALID,0,
2015-03-03, 09:46:04,VALID,918.519,VALID,0,VALID,61.5896,VALID,584.802,VALID,26.2339,VALID,189,VALID,0,
2015-03-03, 09:47:04,VALID,918.5,VALID,0,VALID,60.1945,VALID,586.736,VALID,26.1167,VALID,144,VALID,0.212891,
2015-03-03, 09:48:04,VALID,918.474,VALID,0,VALID,60.6976,VALID,587.166,VALID,26.0972,VALID,128,VALID,0,
2015-03-03, 09:49:04,VALID,918.481,VALID,0,VALID,61.1169,VALID,590.604,VALID,26.2144,VALID,189,VALID,1.36055,
2015-03-03, 09:50:04,VALID,918.471,VALID,0,VALID,58.6088,VALID,592.753,VALID,26.312,VALID,193,VALID,0.107031,
2015-03-03, 09:51:04,VALID,918.459,VALID,0,VALID,59.3864,VALID,595.869,VALID,26.0776,VALID,159,VALID,0.178125,
2015-03-03, 09:52:04,VALID,918.467,VALID,0,VALID,60.0649,VALID,598.555,VALID,26.0366,VALID,177,VALID,0.402344,
2015-03-03, 09:53:04,VALID,918.471,VALID,0,VALID,59.4093,VALID,601.778,VALID,26.1167,VALID,162,VALID,0.00234375,
2015-03-03, 09:54:04,VALID,918.478,VALID,0,VALID,60.347,VALID,604.142,VALID,26.2144,VALID,193,VALID,0.348047,
2015-03-03, 09:55:04,VALID,918.455,VALID,0,VALID,58.586,VALID,607.687,VALID,26.3296,VALID,198,VALID,0.582422,
2015-03-03, 09:56:04,VALID,918.471,VALID,0,VALID,58.0294,VALID,610.695,VALID,26.4077,VALID,193,VALID,0,
2015-03-03, 09:57:04,VALID,918.472,VALID,0,VALID,57.3891,VALID,614.349,VALID,26.5444,VALID,187,VALID,0,
2015-03-03, 09:58:04,VALID,918.476,VALID,0,VALID,56.2456,VALID,615.96,VALID,26.7007,VALID,193,VALID,0.794531,
2015-03-03, 09:59:04,VALID,918.437,VALID,0,VALID,55.8949,VALID,619.076,VALID,26.8395,VALID,203,VALID,0.327734,
2015-03-03, 10:00:04,VALID,918.407,VALID,0,VALID,55.5823,VALID,621.654,VALID,26.7593,VALID,212,VALID,0,
2015-03-03, 10:01:04,VALID,918.409,VALID,0,VALID,56.4209,VALID,624.233,VALID,26.7593,VALID,217,VALID,0,
2015-03-03, 10:02:04,VALID,918.388,VALID,0,VALID,56.8707,VALID,625.952,VALID,26.7984,VALID,196,VALID,0,
2015-03-03, 10:03:04,VALID,918.395,VALID,0,VALID,56.0702,VALID,630.142,VALID,26.9156,VALID,147,VALID,0,
2015-03-03, 10:04:04,VALID,918.367,VALID,0,VALID,56.0855,VALID,633.688,VALID,26.857,VALID,124,VALID,0.319531,
2015-03-03, 10:05:04,VALID,918.375,VALID,0,VALID,57.2595,VALID,637.126,VALID,26.7398,VALID,74,VALID,0.149219,
2015-03-03, 10:06:04,VALID,918.383,VALID,0,VALID,59.051,VALID,638.523,VALID,26.6616,VALID,109,VALID,0.949609,
2015-03-03, 10:07:04,VALID,918.387,VALID,0,VALID,59.5694,VALID,643.035,VALID,26.6616,VALID,109,VALID,0,
2015-03-03, 10:08:04,VALID,918.412,VALID,0,VALID,56.398,VALID,644.002,VALID,26.8765,VALID,182,VALID,0.427344,
2015-03-03, 10:09:04,VALID,918.389,VALID,0,VALID,55.4832,VALID,644.002,VALID,27.0523,VALID,182,VALID,0,
2015-03-03, 10:10:04,VALID,918.407,VALID,0,VALID,56.4057,VALID,647.548,VALID,27.1695,VALID,168,VALID,0.00429688,
2015-03-03, 10:11:04,VALID,918.4,VALID,0,VALID,55.5976,VALID,649.159,VALID,27.2868,VALID,182,VALID,0,
2015-03-03, 10:12:04,VALID,918.405,VALID,0,VALID,55.468,VALID,651.845,VALID,27.2281,VALID,127,VALID,0.371484,
2015-03-03, 10:13:04,VALID,918.389,VALID,0,VALID,55.9025,VALID,653.887,VALID,26.9156,VALID,117,VALID,0.0371094,
2015-03-03, 10:14:04,VALID,918.389,VALID,0,VALID,56.5276,VALID,656.036,VALID,26.6246,VALID,159,VALID,0.366406,
2015-03-03, 10:15:04,VALID,918.413,VALID,0,VALID,55.4375,VALID,657.862,VALID,26.566,VALID,155,VALID,0,
2015-03-03, 10:16:04,VALID,918.359,VALID,0,VALID,55.1325,VALID,660.656,VALID,26.8004,VALID,120,VALID,0,
2015-03-03, 10:17:04,VALID,918.34,VALID,0,VALID,55.407,VALID,661.838,VALID,26.9372,VALID,115,VALID,0,
2015-03-03, 10:18:04,VALID,918.352,VALID,0,VALID,54.9648,VALID,666.135,VALID,26.8981,VALID,221,VALID,0,
2015-03-03, 10:19:04,VALID,918.316,VALID,0,VALID,55.7729,VALID,671.4,VALID,26.8765,VALID,219,VALID,0,
2015-03-03, 10:20:04,VALID,918.279,VALID,0,VALID,55.9254,VALID,673.441,VALID,26.9742,VALID,224,VALID,0,
2015-03-03, 10:21:04,VALID,918.293,VALID,0,VALID,55.3079,VALID,678.491,VALID,27.1109,VALID,224,VALID,0,
2015-03-03, 10:22:04,VALID,918.275,VALID,0,VALID,56.4133,VALID,682.359,VALID,27.3084,VALID,211,VALID,0,
2015-03-03, 10:23:04,VALID,918.26,VALID,0,VALID,54.7361,VALID,686.871,VALID,27.3258,VALID,218,VALID,0,
2015-03-03, 10:24:04,VALID,918.256,VALID,0,VALID,54.172,VALID,689.235,VALID,27.4256,VALID,218,VALID,0,
2015-03-03, 10:25:04,VALID,918.218,VALID,0,VALID,54.2406,VALID,692.028,VALID,27.4821,VALID,204,VALID,0,
2015-03-03, 10:26:04,VALID,918.215,VALID,0,VALID,54.3016,VALID,695.037,VALID,27.6406,VALID,199,VALID,0,
2015-03-03, 10:27:04,VALID,918.236,VALID,0,VALID,51.2903,VALID,75.4237,VALID,27.6971,VALID,231,VALID,0.368359,
2015-03-03, 10:28:04,VALID,918.21,VALID,0,VALID,51.6181,VALID,234.759,VALID,27.5603,VALID,237,VALID,0,
2015-03-03, 10:29:04,VALID,918.185,VALID,0,VALID,52.6626,VALID,344.241,VALID,27.3454,VALID,237,VALID,0,
2015-03-03, 10:30:04,VALID,918.182,VALID,0,VALID,52.7617,VALID,705.136,VALID,27.4431,VALID,238,VALID,0,
2015-03-03, 10:31:04,VALID,918.194,VALID,0,VALID,51.8697,VALID,513.461,VALID,27.404,VALID,237,VALID,0,
2015-03-03, 10:32:04,VALID,918.189,VALID,0,VALID,54.4617,VALID,701.054,VALID,27.4626,VALID,206,VALID,1.34375,
2015-03-03, 10:33:04,VALID,918.2,VALID,0,VALID,53.4249,VALID,696.971,VALID,27.4431,VALID,228,VALID,1.48477,
2015-03-03, 10:34:04,VALID,918.166,VALID,0,VALID,53.1962,VALID,79.6139,VALID,27.4235,VALID,229,VALID,0.850391,
2015-03-03, 10:35:04,VALID,918.157,VALID,0,VALID,53.2953,VALID,729.203,VALID,27.4019,VALID,251,VALID,0.678906,
2015-03-03, 10:36:04,VALID,918.12,VALID,0,VALID,52.6016,VALID,739.41,VALID,27.2086,VALID,254,VALID,0,
2015-03-03, 10:37:04,VALID,918.134,VALID,0,VALID,53.0971,VALID,743.708,VALID,26.9742,VALID,245,VALID,0,
2015-03-03, 10:38:04,VALID,918.094,VALID,0,VALID,54.5837,VALID,769.601,VALID,26.9351,VALID,245,VALID,0,
2015-03-03, 10:39:04,VALID,918.108,VALID,0,VALID,54.8429,VALID,140.963,VALID,27.0914,VALID,250,VALID,0,
2015-03-03, 10:40:04,VALID,918.077,VALID,0,VALID,54.9648,VALID,132.153,VALID,27.0719,VALID,239,VALID,0,
2015-03-03, 10:41:04,VALID,918.11,VALID,0,VALID,56.5734,VALID,140.211,VALID,27.0523,VALID,251,VALID,0,
2015-03-03, 10:42:04,VALID,918.083,VALID,0,VALID,56.581,VALID,144.831,VALID,26.9937,VALID,248,VALID,0,
2015-03-03, 10:43:04,VALID,918.04,VALID,0,VALID,56.3142,VALID,780.345,VALID,26.9351,VALID,237,VALID,0,
2015-03-03, 10:44:04,VALID,918.05,VALID,0,VALID,56.2074,VALID,757.353,VALID,27.0328,VALID,261,VALID,0,
2015-03-03, 10:45:04,VALID,918.058,VALID,0,VALID,57.3891,VALID,747.361,VALID,27.2281,VALID,261,VALID,0,
2015-03-03, 10:46:04,VALID,918.046,VALID,0,VALID,54.8886,VALID,753.162,VALID,27.4061,VALID,250,VALID,0,
2015-03-03, 10:47:04,VALID,918.049,VALID,0,VALID,54.1796,VALID,753.162,VALID,27.3454,VALID,249,VALID,0.36875,
2015-03-03, 10:48:04,VALID,918.005,VALID,0,VALID,55.7195,VALID,748.005,VALID,27.2672,VALID,237,VALID,0,
2015-03-03, 10:49:04,VALID,918.014,VALID,0,VALID,56.0626,VALID,752.625,VALID,27.4821,VALID,237,VALID,0,
2015-03-03, 10:50:04,VALID,918.017,VALID,0,VALID,55.9711,VALID,757.46,VALID,27.658,VALID,259,VALID,0.00429688,
2015-03-03, 10:51:04,VALID,918.037,VALID,0,VALID,55.2393,VALID,765.626,VALID,27.5994,VALID,263,VALID,0,
2015-03-03, 10:52:04,VALID,918.013,VALID,0,VALID,53.2267,VALID,789.8,VALID,27.5408,VALID,258,VALID,0,
2015-03-03, 10:53:04,VALID,918.003,VALID,0,VALID,53.7222,VALID,159.55,VALID,27.4626,VALID,263,VALID,0,